Location: Unspecified
(0.0000°N, 0.0000°E)
Time: 06:44:33
(UTC+00:00)

Vanguard 1 - Pass Details

Date: 17 December 2018
Orbit: 654 x 3829 km, 34.2° (Epoch: 15 June)

Event Time Altitude Azimuth Distance (km) Brightness Sun altitude
Rises 00:22:27 0° 223° (SW) 6,132 14.3 -65.8°
Reaches altitude 10° 00:27:41 10° 215° (SW) 4,548 13.6 -65.4°
Enters shadow 00:28:16 11° 214° (SW) 4,373 13.5 -65.4°
